Total_Precipitation_Accumulation
0.02 0.06 0.13 0.09 0.08 0.07 0.07 0.08 0.10 0.12 0.17 0.22 0.22 0.20 0.20 0.20 0.21 0.19 0.23 0.25 0.27 0.30 0.28 0.30 0.31 0.33 0.35 0.33 0.23 0.10 0.05 0.04 0.03 0.03 0.03 0.04 0.06 0.07 0.06 0.07 0.09 0.09 0.10
0.02 0.05 0.12 0.10 0.09 0.09 0.10 0.10 0.11 0.12 0.18 0.23 0.23 0.23 0.25 0.25 0.23 0.22 0.22 0.24 0.25 0.25 0.26 0.25 0.20 0.16 0.12 0.09 0.06 0.03 0.02 0.02 0.01 0.01 0.01 0.02 0.04 0.04 0.04 0.04 0.07 0.09 0.12
0.02 0.06 0.11 0.11 0.10 0.10 0.11 0.11 0.11 0.15 0.20 0.22 0.23 0.24 0.24 0.23 0.23 0.23 0.23 0.22 0.22 0.20 0.21 0.16 0.11 0.06 0.04 0.02 0.02 0.01 0.01 0.01 0.00 0.01 0.01 0.02 0.03 0.05 0.05 0.05 0.07 0.11 0.13
0.03 0.07 0.10 0.14 0.13 0.12 0.12 0.13 0.13 0.16 0.21 0.25 0.27 0.27 0.25 0.24 0.25 0.25 0.21 0.18 0.16 0.14 0.13 0.08 0.04 0.03 0.02 0.01 0.01 0.01 0.01 0.00 0.00 0.01 0.03 0.03 0.03 0.06 0.07 0.07 0.08 0.09 0.10
0.07 0.09 0.15 0.19 0.19 0.17 0.14 0.14 0.16 0.18 0.22 0.27 0.33 0.35 0.33 0.31 0.29 0.25 0.18 0.15 0.12 0.10 0.10 0.06 0.02 0.02 0.01 0.01 0.01 0.01 0.01 0.01 0.00 0.01 0.01 0.02 0.04 0.07 0.07 0.07 0.09 0.10 0.11
0.14 0.16 0.22 0.25 0.26 0.24 0.20 0.18 0.19 0.22 0.23 0.27 0.34 0.38 0.36 0.34 0.33 0.26 0.19 0.12 0.08 0.08 0.08 0.06 0.03 0.02 0.01 0.01 0.01 0.01 0.01 0.01 0.00 0.00 0.01 0.02 0.03 0.07 0.07 0.08 0.11 0.14 0.16
0.25 0.28 0.29 0.30 0.29 0.29 0.26 0.23 0.22 0.24 0.27 0.30 0.37 0.38 0.38 0.34 0.32 0.30 0.21 0.10 0.06 0.07 0.07 0.06 0.04 0.03 0.01 0.01 0.01 0.01 0.00 0.00 0.00 0.00 0.01 0.02 0.04 0.08 0.09 0.10 0.11 0.14 0.17
0.39 0.46 0.44 0.42 0.36 0.32 0.30 0.30 0.29 0.30 0.31 0.35 0.41 0.40 0.40 0.38 0.35 0.32 0.23 0.12 0.07 0.06 0.07 0.06 0.05 0.04 0.03 0.01 0.01 0.00 0.00 0.00 0.00 0.00 0.01 0.02 0.03 0.07 0.08 0.09 0.09 0.10 0.12
0.68 0.70 0.63 0.54 0.45 0.39 0.33 0.30 0.31 0.33 0.35 0.40 0.44 0.42 0.42 0.40 0.40 0.35 0.26 0.15 0.10 0.08 0.08 0.08 0.06 0.05 0.03 0.02 0.01 0.00 0.00 0.00 0.00 0.00 0.00 0.01 0.04 0.08 0.09 0.10 0.12 0.12 0.11
0.91 0.95 0.87 0.72 0.61 0.52 0.44 0.34 0.30 0.32 0.33 0.38 0.38 0.33 0.33 0.36 0.39 0.34 0.24 0.18 0.13 0.09 0.08 0.08 0.07 0.06 0.04 0.02 0.01 0.00 0.00 0.00 0.00 0.00 0.00 0.01 0.04 0.10 0.13 0.14 0.14 0.12 0.11
1.10 1.08 1.06 0.93 0.74 0.62 0.50 0.39 0.33 0.32 0.32 0.32 0.31 0.26 0.25 0.29 0.32 0.26 0.17 0.15 0.16 0.14 0.09 0.07 0.06 0.06 0.04 0.02 0.01 0.00 0.00 0.00 0.00 0.00 0.01 0.02 0.08 0.13 0.13 0.10 0.08 0.07 0.08
1.12 1.09 1.09 0.99 0.87 0.77 0.60 0.44 0.39 0.36 0.34 0.31 0.26 0.27 0.25 0.25 0.28 0.23 0.18 0.15 0.15 0.14 0.10 0.08 0.08 0.06 0.03 0.01 0.00 0.00 0.00 0.00 0.00 0.00 0.01 0.04 0.08 0.09 0.07 0.05 0.06 0.06 0.06
1.20 1.24 1.19 1.11 0.95 0.88 0.78 0.56 0.42 0.37 0.38 0.37 0.29 0.29 0.28 0.29 0.31 0.30 0.25 0.21 0.17 0.12 0.09 0.07 0.06 0.04 0.02 0.01 0.00 0.00 0.00 0.00 0.00 0.00 0.01 0.02 0.03 0.05 0.05 0.04 0.04 0.04 0.03
1.27 1.25 1.25 1.24 1.08 0.90 0.79 0.66 0.50 0.39 0.36 0.37 0.33 0.30 0.32 0.31 0.27 0.26 0.25 0.20 0.20 0.15 0.12 0.09 0.05 0.03 0.02 0.01 0.01 0.00 0.00 0.00 0.00 0.00 0.00 0.00 0.01 0.02 0.03 0.03 0.03 0.03 0.03
1.22 1.28 1.25 1.26 1.20 1.03 0.90 0.73 0.58 0.46 0.39 0.38 0.38 0.34 0.31 0.31 0.28 0.25 0.24 0.24 0.23 0.20 0.16 0.12 0.08 0.06 0.03 0.02 0.01 0.01 0.00 0.00 0.00 0.00 0.00 0.00 0.00 0.01 0.02 0.03 0.04 0.05 0.07
1.06 1.23 1.27 1.27 1.29 1.22 1.02 0.85 0.69 0.54 0.43 0.44 0.44 0.38 0.37 0.35 0.34 0.30 0.26 0.24 0.24 0.23 0.20 0.14 0.10 0.09 0.07 0.05 0.03 0.02 0.01 0.01 0.00 0.00 0.00 0.00 0.00 0.00 0.01 0.02 0.04 0.07 0.09
1.00 1.19 1.20 1.27 1.35 1.33 1.21 1.06 0.83 0.69 0.51 0.44 0.47 0.46 0.43 0.41 0.39 0.37 0.32 0.28 0.25 0.24 0.24 0.22 0.19 0.17 0.12 0.08 0.05 0.04 0.03 0.02 0.01 0.00 0.00 0.00 0.00 0.00 0.00 0.01 0.03 0.07 0.10
1.12 1.21 1.25 1.25 1.37 1.37 1.34 1.30 1.11 0.88 0.69 0.54 0.52 0.55 0.49 0.47 0.47 0.45 0.39 0.30 0.26 0.28 0.28 0.24 0.21 0.19 0.15 0.11 0.07 0.06 0.04 0.03 0.02 0.01 0.00 0.00 0.00 0.00 0.00 0.00 0.02 0.05 0.09
1.20 1.24 1.38 1.33 1.39 1.48 1.48 1.49 1.39 1.20 0.96 0.78 0.66 0.60 0.58 0.53 0.50 0.51 0.45 0.38 0.35 0.30 0.28 0.27 0.22 0.19 0.17 0.14 0.10 0.06 0.04 0.02 0.02 0.02 0.02 0.01 0.01 0.00 0.00 0.00 0.01 0.02 0.05
1.22 1.32 1.45 1.49 1.49 1.65 1.75 1.76 1.70 1.46 1.20 1.04 0.87 0.75 0.70 0.69 0.63 0.57 0.52 0.50 0.47 0.41 0.32 0.28 0.26 0.23 0.20 0.19 0.17 0.12 0.06 0.03 0.02 0.01 0.01 0.02 0.01 0.01 0.01 0.01 0.02 0.02 0.02
1.22 1.33 1.42 1.51 1.57 1.71 1.74 1.71 1.69 1.52 1.33 1.17 1.07 0.99 0.93 0.88 0.87 0.76 0.64 0.62 0.60 0.53 0.44 0.40 0.37 0.34 0.29 0.27 0.25 0.19 0.12 0.08 0.04 0.02 0.02 0.01 0.01 0.02 0.02 0.02 0.03 0.02 0.02
1.03 1.23 1.36 1.46 1.60 1.62 1.63 1.72 1.85 1.91 1.73 1.47 1.32 1.20 1.08 1.04 1.01 0.93 0.84 0.77 0.71 0.67 0.62 0.56 0.51 0.47 0.43 0.42 0.39 0.36 0.24 0.13 0.07 0.03 0.02 0.02 0.03 0.03 0.02 0.03 0.03 0.03 0.03
0.87 1.08 1.32 1.45 1.60 1.64 1.68 1.89 2.03 2.14 1.97 1.66 1.33 1.17 1.15 1.18 1.19 1.08 1.03 1.01 0.93 0.83 0.75 0.70 0.66 0.62 0.55 0.50 0.49 0.52 0.40 0.21 0.11 0.06 0.04 0.03 0.03 0.03 0.04 0.05 0.05 0.05 0.04
0.75 0.91 1.08 1.26 1.45 1.63 1.68 1.73 1.77 1.82 1.77 1.56 1.45 1.36 1.37 1.38 1.37 1.30 1.22 1.18 1.14 1.04 0.90 0.85 0.80 0.74 0.70 0.63 0.57 0.49 0.45 0.34 0.30 0.19 0.09 0.07 0.07 0.06 0.07 0.07 0.07 0.07 0.06
0.65 0.85 0.98 1.09 1.29 1.51 1.62 1.67 1.77 1.72 1.71 1.77 1.73 1.64 1.54 1.48 1.45 1.41 1.36 1.33 1.26 1.18 1.09 1.05 1.00 0.94 0.84 0.75 0.67 0.58 0.54 0.45 0.36 0.35 0.23 0.12 0.11 0.10 0.08 0.08 0.07 0.07 0.07
0.56 0.73 0.93 0.99 1.11 1.26 1.47 1.65 1.70 1.64 1.66 1.69 1.68 1.63 1.59 1.58 1.55 1.46 1.39 1.35 1.29 1.25 1.21 1.17 1.16 1.10 1.02 0.93 0.85 0.76 0.70 0.62 0.49 0.47 0.41 0.26 0.21 0.15 0.12 0.10 0.09 0.10 0.11